Regional Weather Roundup
Issued by NWS

Home | Current Version | Previous Version | Graphics & Text | Print | Product List | Glossary On
Versions: 1 2 3 4 5 6 7 8 9 10 11 12 13 14 15 16 17 18 19 20 21 22 23 24 25 26 27 28 29 30 31 32 33 34 35 36 37 38 39 40 41 42 43 44 45 46 47 48 49 50
744
ASUS44 KLIX 180007
RWRLA
LOUISIANA WEATHER ROUNDUP
NATIONAL WEATHER SERVICE NEW ORLEANS LA
700 PM CDT FRI APR 17 2015

NOTE: "FAIR" INDICATES FEW OR NO CLOUDS BELOW 12,000 FEET WITH NO
      SIGNIFICANT WEATHER AND/OR OBSTRUCTIONS TO VISIBILITY.
      SKY/WX - SKY CONDITION AND SIGNIFICANT WEATHER.
      TMP - AIR TEMPERATURE.    DP   - DEWPOINT TEMPERATURE.
      RH  - RELATIVE HUMIDITY.  PRES - PRESSURE.
      HX  - HEAT INDEX.         WCI  - WIND CHILL INDEX.

*  THESE STATIONS ARE NOT NWS OR FAA STATIONS AND ARE NOT UNDER
   NWS QUALITY CONTROL.

LAZ040-048-061>063-065-066-069-180100-
SOUTHEAST LOUISIANA

CITY           SKY/WX    TMP DP  RH WIND       PRES   REMARKS
N.O. AUDUBON     N/A     79  73  82 MISG        N/A
6HR MIN TEMP:  78;

N.O. INTL ARPT CLOUDY    79  68  69 SW6       29.91S
6HR MIN TEMP:  77; 6HR MAX TEMP:  83;

N.O. LAKEFRONT CLOUDY    81  70  69 CALM      29.92S
6HR MIN TEMP:  77; 6HR MAX TEMP:  83;

SLIDELL        MOCLDY    79  72  79 SW5       29.91R
6HR MIN TEMP:  78; 6HR MAX TEMP:  83;

BATON ROUGE    CLOUDY    78  69  73 CALM      29.92R
6HR MIN TEMP:  78; 6HR MAX TEMP:  84;

BOOTHVILLE     MOCLDY    77  71  82 SW3       29.93S
6HR MIN TEMP:  77; 6HR MAX TEMP:  80;

BELLE CHASSE   MOCLDY    76  70  82 SW5       29.91S
6HR MIN TEMP:  76; 6HR MAX TEMP:  81; 6HR PCP: TRACE;

BOGALUSA*        N/A     82  68  63 CALM      29.93R
6HR MIN TEMP:  81; 6HR MAX TEMP:  86;

GALLIANO*      MOCLDY    80  71  73 CALM      29.92F
6HR MIN TEMP:  79; 6HR MAX TEMP:  83;

NEW ROADS*     FAIR      78  69  73 CALM      29.92S
6HR MIN TEMP:  78; 6HR MAX TEMP:  83;

GONZALES*      FAIR      78  72  83 SW3       29.92R
6HR MIN TEMP:  78; 6HR MAX TEMP:  83;

HAMMOND*       CLOUDY    79  68  69 CALM      29.93S
HOUMA*         NOT AVBL
PORT FOURCHON* CLEAR     79  70  73 E3        29.96S

$$

LAZ041-044-053-054-180100-
SOUTHWEST LOUISIANA

CITY           SKY/WX    TMP DP  RH WIND       PRES   REMARKS
LAKE CHARLES   CLOUDY    78  71  79 SE6       29.89S
6HR MIN TEMP:  78; 6HR MAX TEMP:  82;

LAFAYETTE      CLOUDY    78  71  79 SE3       29.91S
6HR MIN TEMP:  78; 6HR MAX TEMP:  83;

PATTERSON      CLOUDY    77  70  78 CALM      29.94R
6HR MIN TEMP:  75; 6HR MAX TEMP:  81;

SALT POINT       N/A     77  70  79 CALM      29.91S
6HR MIN TEMP:  76; 6HR MAX TEMP:  80;

NEW IBERIA     CLOUDY    78  71  79 S5        29.92R
6HR MIN TEMP:  78; 6HR MAX TEMP:  82;

CHENAULT AIRPK NOT AVBL

$$

LAZ027-028-180100-
CENTRAL LOUISIANA

CITY           SKY/WX    TMP DP  RH WIND       PRES   REMARKS
FORT POLK      CLOUDY    77  67  72 NE5       29.90F
6HR MIN TEMP:  76; 6HR MAX TEMP:  82;

ALEXANDRIA INT CLOUDY    76  68  76 CALM      29.89F
6HR MIN TEMP:  74; 6HR MAX TEMP:  81;

ALEXANDRIA     MOCLDY    75  69  81 E3        29.91F
6HR MIN TEMP:  75; 6HR MAX TEMP:  83;


$$

LAZ001-002-180100-
NORTHWEST LOUISIANA

CITY           SKY/WX    TMP DP  RH WIND       PRES   REMARKS
SHREVEPORT     CLOUDY    77  65  66 CALM      29.90F
6HR MIN TEMP:  77; 6HR MAX TEMP:  81;

BARKSDALE AFB  CLOUDY    76  65  69 SE5       29.90F
6HR MIN TEMP:  73; 6HR MAX TEMP:  82;

DTN SHREVEPORT CLOUDY    76  62  62 CALM      29.90F
6HR MIN TEMP:  72; 6HR MAX TEMP:  80;


$$

LAZ014-016-180100-
NORTHEAST LOUISIANA

CITY           SKY/WX    TMP DP  RH WIND       PRES   REMARKS
MONROE         MOCLDY    76  65  68 NE6       29.93S
6HR MIN TEMP:  76; 6HR MAX TEMP:  83;

TALLULAH       PTCLDY    74  63  68 CALM      29.92S
6HR MIN TEMP:  73; 6HR MAX TEMP:  81; 6HR PCP:  0.01;


$$




USA.gov is the U.S. government's official web portal to all federal, state and local government web resources and services.